Change the Weather History Date:

Monday, January 21, 2013

  Actual Average Record
Temperature  
Mean Temperature 9 °F -  
Max Temperature 14 °F 33 °F 60 °F (2009)
Min Temperature 4 °F 13 °F 1 °F (2014)
Degree Days  
Heating Degree Days 56    
Moisture  
Dew Point 4 °F    
Average Humidity 76    
Maximum Humidity 82    
Minimum Humidity 68    
Precipitation  
Precipitation 0.00 in - - ()
Sea Level Pressure  
Sea Level Pressure 30.26 in    
Wind  
Wind Speed 6 mph (North)    
Max Wind Speed 12 mph    
Max Gust Speed -    
Visibility 8 miles    
Events Snow    
Averages and records for this station are not official NWS values.
T = Trace of Precipitation, MM = Missing Value Source: NWS Daily Summary

Daily Weather History Graph

Daily Weather History Graph

Search for Another Location

Airport or City:

Trip Planner

Search our weather history database for the weather conditions in past years. The results will help you decide how hot, cold, wet, or windy it might be!

Date:

Astronomy

Jan. 21, 2013 Rise Set
Actual Time 8:03 AM CST 5:39 PM CST
Civil Twilight 7:32 AM CST 6:10 PM CST
Nautical Twilight 6:58 AM CST 6:44 PM CST
Astronomical Twilight 6:24 AM CST 7:18 PM CST
Moon 1:20 PM CST (1/21) 3:33 AM CST (1/21)
Length of Visible Light 10h 37m
Length of Day
9h 36m
Waxing Gibbous, 75% of the Moon is Illuminated
Jan 21
Waxing Gibbous
Jan 26
Full
Feb 3
Last Quarter
Feb 10
New
Feb 17
First Quarter

Hourly Weather History & Observations

Time (CST) Temp. Windchill Dew Point Humidity Pressure Visibility Wind Dir Wind Speed Gust Speed Precip Events Conditions
12:15 AM 11.1 °F -1.6 °F 6.3 °F 81% 30.35 in 7.0 mi North 9.2 mph - N/A Snow Light Snow
12:35 AM 10.4 °F -2.4 °F 5.5 °F 81% 30.35 in 5.0 mi North 9.2 mph - N/A Snow Light Snow
12:55 AM 10.6 °F -1.3 °F 5.5 °F 80% 30.35 in 4.0 mi NNW 8.1 mph - N/A Snow Light Snow
1:15 AM 10.4 °F 2.2 °F 5.5 °F 81% 30.34 in 4.0 mi NNW 4.6 mph - N/A Snow Light Snow
1:35 AM 10.2 °F 0.6 °F 5.4 °F 81% 30.33 in 5.0 mi North 5.8 mph - N/A Snow Light Snow
1:55 AM 10.4 °F 0.8 °F 5.9 °F 82% 30.33 in 7.0 mi North 5.8 mph - N/A Snow Light Snow
2:15 AM 10.0 °F 1.8 °F 5.0 °F 80% 30.33 in 5.0 mi North 4.6 mph - N/A Snow Light Snow
2:35 AM 9.5 °F -1.5 °F 4.8 °F 81% 30.33 in 5.0 mi North 6.9 mph - N/A Snow Light Snow
2:55 AM 9.1 °F -1.9 °F 4.1 °F 80% 30.33 in 7.0 mi North 6.9 mph - N/A Snow Light Snow
3:15 AM 8.6 °F -3.7 °F 3.9 °F 81% 30.33 in 7.0 mi North 8.1 mph - N/A Snow Light Snow
3:35 AM 7.7 °F -5.8 °F 3.0 °F 81% 30.32 in 5.0 mi North 9.2 mph - N/A Snow Light Snow
3:55 AM 6.8 °F -5.9 °F 1.6 °F 79% 30.31 in 7.0 mi North 8.1 mph - N/A Snow Light Snow
4:15 AM 6.3 °F -4.1 °F 1.2 °F 80% 30.30 in 5.0 mi North 5.8 mph - N/A Snow Light Snow
4:35 AM 5.9 °F -4.5 °F 0.9 °F 80% 30.30 in 7.0 mi North 5.8 mph - N/A Snow Light Snow
4:55 AM 5.7 °F -1.3 °F 0.5 °F 79% 30.29 in 10.0 mi North 3.5 mph - N/A Snow Light Snow
5:15 AM 5.7 °F -1.3 °F 0.5 °F 79% 30.30 in 10.0 mi North 3.5 mph - N/A Snow Light Snow
5:35 AM 5.5 °F - 0.1 °F 78% 30.30 in 7.0 mi Calm Calm - N/A Snow Light Snow
5:55 AM 5.2 °F -1.9 °F -0.4 °F 78% 30.29 in 5.0 mi North 3.5 mph - N/A Snow Light Snow
6:15 AM 4.6 °F -2.5 °F -1.3 °F 76% 30.29 in 10.0 mi North 3.5 mph - N/A   Overcast
6:35 AM 4.6 °F -4.5 °F -1.3 °F 76% 30.29 in 10.0 mi NNE 4.6 mph - N/A   Overcast
6:55 AM 4.3 °F -2.9 °F -1.5 °F 77% 30.29 in 10.0 mi NNE 3.5 mph - N/A   Overcast
7:15 AM 4.5 °F -4.7 °F -1.3 °F 77% 30.27 in 10.0 mi NNE 4.6 mph - N/A   Overcast
7:35 AM 4.1 °F - -2.0 °F 76% 30.29 in 10.0 mi Calm Calm - N/A Snow Light Snow
7:55 AM 4.1 °F - -1.7 °F 77% 30.28 in 10.0 mi Calm Calm - N/A   Overcast
8:15 AM 4.6 °F - -1.3 °F 76% 30.27 in 10.0 mi Calm Calm - N/A   Overcast
8:35 AM 5.4 °F - -0.8 °F 76% 30.28 in 10.0 mi Calm Calm - N/A   Overcast
8:55 AM 5.7 °F - -0.4 °F 76% 30.28 in 10.0 mi Calm Calm - N/A   Overcast
9:15 AM 6.6 °F - 0.1 °F 75% 30.30 in 10.0 mi Calm Calm - N/A   Overcast
9:35 AM 6.6 °F - -0.6 °F 72% 30.29 in 10.0 mi Calm Calm - N/A   Overcast
9:55 AM 7.3 °F - -0.2 °F 71% 30.30 in 10.0 mi Calm Calm - N/A   Overcast
10:15 AM 7.3 °F - -0.8 °F 69% 30.31 in 10.0 mi Calm Calm - N/A   Overcast
10:35 AM 7.7 °F -0.9 °F -0.6 °F 69% 30.31 in 10.0 mi West 4.6 mph - N/A   Overcast
10:55 AM 7.9 °F -0.7 °F 0.5 °F 72% 30.31 in 10.0 mi NNW 4.6 mph - N/A Snow Light Snow
11:15 AM 8.4 °F 1.8 °F 1.0 °F 72% 30.31 in 10.0 mi NW 3.5 mph - N/A Snow Light Snow
11:35 AM 9.1 °F 0.8 °F 1.6 °F 71% 30.30 in 10.0 mi WNW 4.6 mph - N/A Snow Light Snow
11:55 AM 10.0 °F 3.6 °F 2.3 °F 71% 30.29 in 10.0 mi WNW 3.5 mph - N/A Snow Light Snow
12:15 PM 10.0 °F - 1.8 °F 69% 30.29 in 10.0 mi Calm Calm - N/A   Overcast
12:35 PM 11.1 °F 3.1 °F 2.8 °F 69% 30.28 in 10.0 mi NW 4.6 mph - N/A Snow Light Snow
12:55 PM 12.0 °F 0.5 °F 3.2 °F 68% 30.26 in 5.0 mi NW 8.1 mph - N/A Snow Light Snow
1:15 PM 12.2 °F -0.2 °F 4.6 °F 72% 30.25 in 3.0 mi NW 9.2 mph - N/A Snow Light Snow
1:35 PM 12.6 °F -0.6 °F 5.2 °F 72% 30.24 in 3.0 mi NNW 10.4 mph - N/A Snow Light Snow
1:55 PM 12.9 °F 1.6 °F 5.4 °F 72% 30.24 in 2.5 mi NW 8.1 mph - N/A Snow Light Snow
2:15 PM 13.6 °F 3.5 °F 6.3 °F 72% 30.23 in 4.0 mi NW 6.9 mph - N/A Snow Light Snow
2:35 PM 14.0 °F 0.5 °F 5.7 °F 70% 30.23 in 5.0 mi NW 11.5 mph - N/A Snow Light Snow
2:55 PM 14.0 °F 5.1 °F 6.4 °F 72% 30.22 in 3.0 mi NW 5.8 mph - N/A Snow Light Snow
3:15 PM 14.0 °F 3.9 °F 6.6 °F 72% 30.23 in 4.0 mi NNW 6.9 mph - N/A Snow Light Snow
3:35 PM 14.4 °F 6.9 °F 6.8 °F 72% 30.22 in 5.0 mi NNW 4.6 mph - N/A Snow Light Snow
3:55 PM 14.2 °F 6.7 °F 6.8 °F 73% 30.22 in 7.0 mi North 4.6 mph - N/A Snow Light Snow
4:15 PM 14.4 °F 5.5 °F 6.6 °F 71% 30.22 in 7.0 mi North 5.8 mph - N/A Snow Light Snow
4:35 PM 14.0 °F 6.5 °F 7.0 °F 74% 30.21 in 10.0 mi NNW 4.6 mph - N/A Snow Light Snow
4:55 PM 14.0 °F 8.2 °F 6.8 °F 73% 30.22 in 7.0 mi North 3.5 mph - N/A Snow Light Snow
5:15 PM 14.0 °F 6.5 °F 7.3 °F 75% 30.21 in 10.0 mi North 4.6 mph - N/A   Overcast
5:35 PM 14.0 °F 8.2 °F 7.2 °F 74% 30.21 in 10.0 mi North 3.5 mph - N/A Snow Light Snow
5:55 PM 14.0 °F 8.2 °F 7.0 °F 74% 30.22 in 10.0 mi NNE 3.5 mph - N/A   Overcast
6:15 PM 14.0 °F 8.2 °F 6.8 °F 73% 30.21 in 10.0 mi NNE 3.5 mph - N/A   Overcast
6:35 PM 14.0 °F 8.2 °F 7.0 °F 74% 30.21 in 10.0 mi NNE 3.5 mph - N/A   Overcast
6:55 PM 14.0 °F 6.5 °F 7.5 °F 75% 30.21 in 10.0 mi NNE 4.6 mph - N/A   Overcast
7:15 PM 14.0 °F 6.5 °F 7.0 °F 74% 30.19 in 10.0 mi NE 4.6 mph - N/A   Overcast
7:35 PM 13.6 °F 0.7 °F 7.3 °F 76% 30.19 in 10.0 mi ENE 10.4 mph - N/A   Overcast
7:55 PM 12.9 °F 0.7 °F 6.8 °F 77% 30.19 in 10.0 mi NE 9.2 mph - N/A   Overcast
8:15 PM 12.6 °F 3.4 °F 6.8 °F 78% 30.18 in 10.0 mi ENE 5.8 mph - N/A   Overcast
8:35 PM 12.2 °F 2.9 °F 6.6 °F 78% 30.19 in 10.0 mi East 5.8 mph - N/A   Overcast
8:55 PM 12.2 °F 4.3 °F 6.4 °F 78% 30.19 in 10.0 mi ENE 4.6 mph - N/A   Overcast
9:15 PM 12.2 °F 4.3 °F 6.8 °F 79% 30.19 in 10.0 mi East 4.6 mph - N/A   Overcast
9:35 PM 12.2 °F 6.1 °F 6.4 °F 78% 30.20 in 10.0 mi East 3.5 mph - N/A   Overcast
9:55 PM 12.2 °F 2.9 °F 6.4 °F 78% 30.19 in 10.0 mi East 5.8 mph - N/A   Overcast
10:15 PM 12.2 °F 2.9 °F 6.8 °F 79% 30.18 in 10.0 mi East 5.8 mph - N/A   Overcast
10:35 PM 12.6 °F 4.8 °F 6.8 °F 78% 30.18 in 10.0 mi ESE 4.6 mph - N/A   Overcast
10:55 PM 12.6 °F 3.4 °F 7.0 °F 78% 30.18 in 10.0 mi ESE 5.8 mph - N/A   Overcast
11:15 PM 12.6 °F 3.4 °F 7.2 °F 79% 30.18 in 10.0 mi ESE 5.8 mph - N/A   Overcast
11:35 PM 12.6 °F 2.2 °F 7.2 °F 79% 30.19 in 10.0 mi SE 6.9 mph - N/A   Overcast
11:55 PM 12.6 °F 3.4 °F 7.3 °F 80% 30.19 in 10.0 mi SE 5.8 mph - N/A   Overcast